Location: ?????
(42.2640°N, 43.4211°E)
Time: 13:37:16
(UTC+00:00)

Cosmos 1726 - Pass Details

Date: 07 August 2020
Orbit: 482 x 499 km, 82.5° (Epoch: 20 September)

Event Time Altitude Azimuth Distance (km) Brightness Sun altitude
Exits shadow 00:29:50 27° 193° (SSW) 974 3.1 -15.8°
Maximum altitude 00:31:44 80° 278° (W) 505 2.0 -15.6°
Drops below altitude 10° 00:35:26 10° 6° (N) 1,688 5.5 -15.0°
Sets 00:37:33 0° 7° (N) 2,571 6.5 -14.7°
